TimeMDT,TemperatureF,Dew PointF,Humidity,Sea Level PressureIn,VisibilityMPH,Wind Direction,Wind SpeedMPH,Gust SpeedMPH,PrecipitationIn,Events,Conditions,WindDirDegrees,DateUTC
12:53 AM,35.1,30.9,85,30.10,10.0,South,8.1,-,N/A,,Overcast,190,2013-03-28 06:53:00
1:53 AM,37.0,30.0,76,30.07,10.0,SSW,10.4,-,N/A,,Overcast,210,2013-03-28 07:53:00
2:53 AM,34.0,28.9,82,30.06,10.0,SSW,11.5,-,N/A,,Clear,200,2013-03-28 08:53:00
3:53 AM,37.9,30.0,73,30.03,10.0,SSW,19.6,26.5,N/A,,Partly Cloudy,210,2013-03-28 09:53:00
4:53 AM,37.9,30.9,76,30.01,10.0,SSW,20.7,-,N/A,,Mostly Cloudy,200,2013-03-28 10:53:00
5:53 AM,37.9,30.9,76,30.03,10.0,SSW,16.1,26.5,N/A,,Mostly Cloudy,200,2013-03-28 11:53:00
6:53 AM,37.0,30.0,76,30.06,10.0,SSW,10.4,-,N/A,,Overcast,210,2013-03-28 12:53:00
7:53 AM,39.9,32.0,73,30.08,10.0,WSW,12.7,-,N/A,,Scattered Clouds,240,2013-03-28 13:53:00
8:53 AM,45.0,32.0,60,30.09,10.0,WSW,10.4,-,N/A,,Clear,250,2013-03-28 14:53:00
9:53 AM,53.1,32.0,45,30.08,10.0,WNW,8.1,-,N/A,,Partly Cloudy,300,2013-03-28 15:53:00
10:53 AM,59.0,28.9,32,30.06,10.0,Variable,5.8,-,N/A,,Clear,0,2013-03-28 16:53:00
11:53 AM,63.0,26.1,25,30.05,10.0,North,9.2,-,N/A,,Clear,350,2013-03-28 17:53:00
12:53 PM,64.0,24.1,22,30.02,10.0,Variable,4.6,-,N/A,,Clear,0,2013-03-28 18:53:00
1:53 PM,66.9,24.1,20,30.00,10.0,NNW,11.5,16.1,N/A,,Partly Cloudy,340,2013-03-28 19:53:00
2:53 PM,68.0,19.0,15,29.99,10.0,WNW,17.3,20.7,N/A,,Scattered Clouds,290,2013-03-28 20:53:00
3:53 PM,66.0,19.9,17,29.98,10.0,NNW,17.3,23.0,N/A,,Clear,340,2013-03-28 21:53:00
4:53 PM,64.9,19.0,17,29.98,10.0,North,10.4,-,N/A,,Clear,350,2013-03-28 22:53:00
5:53 PM,64.0,18.0,17,30.00,10.0,North,10.4,-,N/A,,Clear,350,2013-03-28 23:53:00
6:53 PM,57.9,19.0,22,30.03,10.0,NE,5.8,-,N/A,,Clear,50,2013-03-29 00:53:00
7:53 PM,46.0,19.9,35,30.08,10.0,NNE,4.6,-,N/A,,Clear,30,2013-03-29 01:53:00
8:53 PM,43.0,19.0,38,30.08,10.0,Calm,Calm,-,N/A,,Clear,0,2013-03-29 02:53:00
9:53 PM,34.0,19.9,56,30.10,10.0,Calm,Calm,-,N/A,,Clear,0,2013-03-29 03:53:00
10:53 PM,33.1,21.0,61,30.08,10.0,WSW,5.8,-,N/A,,Clear,250,2013-03-29 04:53:00
11:53 PM,36.0,21.9,57,30.06,10.0,NNE,5.8,-,N/A,,Clear,20,2013-03-29 05:53:00